Stations météo

réclame
Mon MeteoGroup
Beauvais, France (7055): Température de l'air & dewpoint: 18.08.2019 02:00:00 - 24.08.2019 02:00:00 (CEST)Beauvais, France (7055): Température de l'air 5cm: 18.08.2019 02:00:00 - 24.08.2019 02:00:00 (CEST)Beauvais, France (7055): Température de l'air -20cm & Température de l'air -100cm: 18.08.2019 02:00:00 - 24.08.2019 02:00:00 (CEST)Beauvais, France (7055): Vitesse du vent & gusts: 18.08.2019 02:00:00 - 24.08.2019 02:00:00 (CEST)Beauvais, France (7055): Direction du vent: 18.08.2019 02:00:00 - 24.08.2019 02:00:00 (CEST)Beauvais, France (7055): reduced air pressure: 18.08.2019 02:00:00 - 24.08.2019 02:00:00 (CEST)Beauvais, France (7055): visibility: 18.08.2019 02:00:00 - 24.08.2019 02:00:00 (CEST)Beauvais, France (7055): Ensoleillement: 18.08.2019 02:00:00 - 24.08.2019 02:00:00 (CEST)Beauvais, France (7055): Quantités de précipitations: 18.08.2019 02:00:00 - 24.08.2019 02:00:00 (CEST)
Date & Time tt [°C] td [°C] tt 5cm [°C] tt -20cm [°C] tt -100cm [°C] ff [km/h] ff [knt] fx [km/h] fx [knt] dd ppp [hPa] vv [km] sd [min] rr [mm]
24.08.2019 02:00:00 12,9 10,8 9,8 17,7 17,0 13 7 14 8 NW 1021,3 37 0 0,0
24.08.2019 01:00:00 13,0 10,5 10,1 17,7 17,0 9 5 11 6 WNW 1021,4 36 0 0,0
24.08.2019 00:00:00 13,8 10,2 10,5 17,7 17,1 9 5 10 6 NW 1021,5 48 0 0,0
23.08.2019 23:00:00 16,7 10,3 11,3 17,6 17,0 0 0 16 8 N 1021,6 47 0 0,0
23.08.2019 22:00:00 18,8 10,4 14,4 17,6 17,0 9 5 19 10 NE 1021,6 52 0 0,0
23.08.2019 21:00:00 20,0 9,5 16,0 17,5 17,0 10 5 20 11 ENE 1021,6 39 0 0,0
23.08.2019 20:00:00 25,1 9,4 23,1 17,4 17,0 11 6 19 10 E 1021,3 42 51 0,0
23.08.2019 19:00:00 26,6 9,4 27,2 17,4 17,0 13 7 23 12 E 1021,4 48 60 0,0
23.08.2019 18:00:00 27,3 8,7 30,8 17,4 17,0 8 4 19 10 E 1021,8 42 60 0,0
23.08.2019 17:00:00 27,6 8,5 31,8 17,3 17,0 13 7 20 11 ENE 1022,3 49 60 0,0
23.08.2019 16:00:00 26,9 8,8 31,9 17,3 17,0 11 6 22 12 E 1022,8 19 60 0,0
23.08.2019 15:00:00 26,8 8,7 33,5 17,3 17,0 9 5 27 15 ENE 1023,2 27 60 0,0
23.08.2019 14:00:00 25,6 9,4 31,2 17,3 17,1 11 6 25 14 E 1023,8 21 60 0,0
23.08.2019 13:00:00 24,5 11,1 31,4 17,3 17,0 14 7 25 14 ENE 1024,5 52 60 0,0
23.08.2019 12:00:00 23,3 11,0 29,1 17,4 17,0 9 5 19 10 E 1025,1 39 60 0,0
23.08.2019 11:00:00 21,8 11,8 27,5 17,4 17,0 8 4 16 9 NE 1025,3 24 60 0,0
23.08.2019 10:00:00 19,2 13,1 21,0 17,5 17,0 2 1 6 3 N 1025,5 35 60 0,0
23.08.2019 09:00:00 13,6 11,6 13,5 17,5 17,0 3 1 10 5 WNW 1026,0 20 60 0,0
23.08.2019 08:00:00 10,4 10,1 5,9 17,6 17,0 7 4 10 5 WNW 1025,9 20 24 0,0
23.08.2019 07:00:00 8,2 7,8 5,2 17,6 17,1 4 2 9 5 NW 1026,2 18 0 0,0
23.08.2019 06:00:00 8,1 6,9 5,6 17,6 17,0 6 3 7 4 NNW 1026,1 24 0 0,0
23.08.2019 05:00:00 9,5 8,9 6,6 17,7 17,1 5 3 10 6 WNW 1026,4 16 0 0,0
23.08.2019 04:00:00 10,0 9,2 6,6 17,7 17,1 8 5 12 6 NNW 1026,3 27 0 0,0
23.08.2019 03:00:00 10,1 8,5 6,8 17,7 17,1 4 2 9 5 NNW 1026,6 33 0 0,0
23.08.2019 02:00:00 11,3 9,4 7,8 17,6 17,1 6 4 9 5 NW 1026,9 35 0 0,0
23.08.2019 01:00:00 11,5 9,2 8,2 17,6 17,1 4 2 9 5 NW 1026,9 34 0 0,0
23.08.2019 00:00:00 13,0 10,4 8,8 17,6 17,1 3 2 9 5 NW 1026,7 35 0 0,0
22.08.2019 23:00:00 15,4 10,8 11,7 17,6 17,1 8 4 21 12 NNW 1026,5 42 0 0,0
22.08.2019 22:00:00 17,5 11,3 14,1 17,5 17,1 13 7 31 17 NNW 1026,4 46 0 0,0
22.08.2019 21:00:00 19,4 11,7 16,6 17,4 17,1 14 8 26 14 N 1025,5 45 0 0,0
22.08.2019 20:00:00 22,1 12,1 20,4 17,4 17,1 18 10 26 14 N 1024,9 37 52 0,0
22.08.2019 19:00:00 26,1 9,4 25,8 17,3 17,1 5 3 14 7 W 1024,4 40 60 0,0
22.08.2019 18:00:00 26,2 9,1 31,0 17,3 17,1 8 4 14 8 W 1024,6 28 60 0,0
22.08.2019 17:00:00 26,1 8,6 31,5 17,3 17,1 5 3 16 8 W 1024,7 29 60 0,0
22.08.2019 16:00:00 26,0 8,9 33,2 17,2 17,1 7 4 18 10 WSW 1025,0 28 60 0,0
22.08.2019 15:00:00 24,7 9,4 33,9 17,2 17,1 4 2 14 8 ENE 1025,4 20 60 0,0
22.08.2019 14:00:00 24,2 9,4 32,3 17,2 17,1 5 3 17 9 NW 1025,8 34 60 0,0
22.08.2019 13:00:00 23,6 10,6 31,9 17,3 17,1 6 3 12 7 SE 1026,2 19 60 0,0
22.08.2019 12:00:00 22,4 11,5 30,3 17,3 17,1 4 2 11 6 WNW 1026,5 20 60 0,0
22.08.2019 11:00:00 21,3 13,0 25,7 17,3 17,1 2 1 4 2 ESE 1026,6 19 60 0,0
22.08.2019 10:00:00 17,5 13,6 22,1 17,4 17,1 2 1 5 3 SSE 1026,6 15 60 0,0
22.08.2019 09:00:00 13,2 12,6 12,8 17,4 17,1 4 2 8 4 WNW 1026,6 18 60 0,0
22.08.2019 08:00:00 10,2 9,9 6,0 17,5 17,1 4 2 8 4 WNW 1026,6 10 25 0,0
22.08.2019 07:00:00 9,0 8,5 5,6 17,5 17,1 5 3 11 6 W 1026,3 13 0 0,0
22.08.2019 06:00:00 8,6 7,8 5,7 17,5 17,1 10 5 11 6 NW 1025,9 9 0 0,2
22.08.2019 05:00:00 9,4 8,6 5,8 17,6 17,1 6 3 8 4 NW 1025,8 20 0 0,0
22.08.2019 04:00:00 8,8 7,6 6,4 17,6 17,2 8 4 11 6 NW 1025,9 37 0 0,0
22.08.2019 03:00:00 9,4 8,2 6,6 17,6 17,2 6 3 10 5 NW 1026,1 34 0 0,0
22.08.2019 02:00:00 9,8 8,2 6,9 17,6 17,2 6 3 9 5 NW 1026,3 41 0 0,0
22.08.2019 01:00:00 10,1 8,4 7,4 17,6 17,2 8 5 9 5 WNW 1026,5 33 0 0,0
22.08.2019 00:00:00 11,6 8,1 7,3 17,5 17,2 5 3 10 5 NNW 1026,5 32 0 0,0
21.08.2019 23:00:00 13,4 9,4 8,4 17,5 17,2 3 1 10 6 NE 1026,4 51 0 0,0
21.08.2019 22:00:00 16,9 9,8 11,0 17,5 17,2 3 2 5 3 ENE 1026,1 49 0 0,0
21.08.2019 21:00:00 18,9 9,4 12,6 17,4 17,2 3 1 5 3 SSE 1025,9 47 0 0,0
21.08.2019 20:00:00 22,6 9,0 18,7 17,4 17,2 4 2 11 6 W 1025,4 56 52 0,0
21.08.2019 19:00:00 23,3 8,6 24,3 17,3 17,2 3 1 13 7 S 1025,4 53 60 0,0
21.08.2019 18:00:00 23,4 9,4 27,1 17,3 17,2 4 2 14 7 NW 1025,8 53 58 0,0
21.08.2019 17:00:00 23,3 8,6 31,3 17,3 17,2 4 2 19 10 WNW 1026,0 20 60 0,0
21.08.2019 16:00:00 23,0 9,4 30,9 17,3 17,2 3 1 15 8 W 1026,4 17 60 0,0
21.08.2019 15:00:00 21,9 9,4 31,0 17,3 17,2 8 4 17 9 NNW 1027,0 35 60 0,0
21.08.2019 14:00:00 21,8 9,7 29,9 17,3 17,2 4 2 13 7 ENE 1027,4 32 60 0,0
21.08.2019 13:00:00 20,8 9,7 27,9 17,3 17,2 5 3 14 7 ESE 1028,0 43 60 0,0
21.08.2019 12:00:00 19,5 8,8 26,0 17,4 17,2 4 2 14 7 SE 1028,7 20 60 0,0
21.08.2019 11:00:00 17,8 10,7 24,3 17,5 17,2 6 3 13 7 ESE 1029,0 20 60 0,0
21.08.2019 10:00:00 15,2 13,0 17,6 17,6 17,2 0 0 5 3 N 1029,2 30 60 0,0
21.08.2019 09:00:00 11,3 11,0 9,8 17,7 17,2 4 2 6 4 NNW 1029,3 19 60 0,0
21.08.2019 08:00:00 8,4 8,3 3,2 17,7 17,2 4 2 9 5 W 1029,3 19 27 0,0
21.08.2019 07:00:00 6,1 5,8 3,0 17,8 17,2 8 4 10 5 WNW 1029,1 14 0 0,0
21.08.2019 06:00:00 6,0 5,3 2,7 17,8 17,2 4 2 7 4 NW 1028,6 18 0 0,0
21.08.2019 05:00:00 6,9 6,0 3,2 17,8 17,2 4 2 6 3 N 1028,6 15 0 0,0
21.08.2019 04:00:00 8,4 7,6 3,5 17,9 17,2 0 0 0 0 N 1028,8 32 0 0,0
21.08.2019 03:00:00 8,2 7,1 4,2 17,9 17,2 0 0 6 3 N 1028,7 27 0 0,0
21.08.2019 02:00:00 9,2 8,3 4,3 17,9 17,2 4 2 8 4 WNW 1028,6 27 0 0,0
21.08.2019 01:00:00 9,9 8,7 5,5 17,9 17,2 5 3 8 4 NW 1028,6 33 0 0,0
21.08.2019 00:00:00 10,1 7,9 6,0 17,8 17,3 5 3 8 4 NW 1028,4 32 0 0,0
20.08.2019 23:00:00 11,9 8,6 7,7 17,8 17,3 6 3 12 6 NNW 1028,0 34 0 0,0
20.08.2019 22:00:00 14,0 9,4 9,7 17,8 17,3 9 5 16 9 NNW 1027,5 33 0 0,0
20.08.2019 21:00:00 15,9 9,8 12,6 17,8 17,3 11 6 21 12 N 1026,9 33 0 0,0
20.08.2019 20:00:00 18,9 10,7 17,1 17,7 17,3 16 9 25 13 NNW 1026,3 25 49 0,0
20.08.2019 19:00:00 19,8 10,8 20,3 17,7 17,3 18 10 27 15 NW 1025,6 20 44 0,0
20.08.2019 18:00:00 21,1 10,6 23,2 17,6 17,3 17 9 30 16 NW 1025,2 25 45 0,0
20.08.2019 17:00:00 21,5 11,2 26,2 17,6 17,3 19 10 31 17 NW 1025,1 27 40 0,0
20.08.2019 16:00:00 22,0 11,4 28,7 17,5 17,3 19 10 38 21 NW 1024,4 19 51 0,0
20.08.2019 15:00:00 22,1 9,3 31,2 17,6 17,3 16 9 32 18 WNW 1024,2 28 58 0,0
20.08.2019 14:00:00 20,5 9,1 25,6 17,6 17,3 20 11 32 17 W 1024,1 20 41 0,0
20.08.2019 13:00:00 20,9 10,7 32,7 17,7 17,3 16 9 37 20 WSW 1024,3 31 60 0,0
20.08.2019 12:00:00 19,5 11,5 28,1 17,7 17,3 13 7 25 14 W 1024,2 35 55 0,0
20.08.2019 11:00:00 18,4 12,4 24,4 17,8 17,3 12 6 27 15 W 1024,1 21 58 0,0
20.08.2019 10:00:00 16,6 13,3 16,6 17,8 17,3 7 4 13 7 W 1023,7 23 60 0,0
20.08.2019 09:00:00 13,8 12,9 11,2 17,9 17,3 4 2 7 4 SE 1024,2 18 55 0,0
20.08.2019 08:00:00 10,7 10,4 8,0 17,9 17,3 3 2 5 3 ESE 1023,7 11 28 0,0
20.08.2019 07:00:00 9,7 9,2 7,7 18,0 17,3 2 1 5 3 ENE 1023,0 20 0 0,0
20.08.2019 06:00:00 9,2 8,7 5,4 18,0 17,3 3 2 5 3 NNE 1022,3 21 0 0,0
20.08.2019 05:00:00 8,9 7,8 6,5 18,1 17,3 4 2 6 3 NW 1022,2 20 0 0,0
20.08.2019 04:00:00 10,1 9,5 7,4 18,1 17,3 4 2 5 3 WNW 1022,0 23 0 0,0
20.08.2019 03:00:00 9,0 7,8 5,4 18,1 17,3 3 1 4 2 NW 1022,3 37 0 0,0
20.08.2019 02:00:00 9,9 8,3 5,6 18,1 17,3 0 0 2 1 N 1022,2 38 0 0,0
20.08.2019 01:00:00 10,9 8,3 6,4 18,1 17,3 0 0 3 2 N 1022,2 32 0 0,0
20.08.2019 00:00:00 12,0 9,6 7,2 18,1 17,3 2 1 6 3 WNW 1022,0 34 0 0,0
19.08.2019 23:00:00 13,1 9,7 8,2 18,1 17,3 4 2 9 5 WSW 1021,3 17 0 0,0
19.08.2019 22:00:00 14,8 10,2 10,0 18,0 17,3 6 3 12 7 NW 1020,7 39 0 0,0
19.08.2019 21:00:00 16,6 10,4 12,1 18,0 17,3 7 4 22 12 WNW 1019,9 39 0 0,0
19.08.2019 20:00:00 19,6 10,8 18,0 17,9 17,3 16 8 29 16 WNW 1019,5 36 35 0,0
19.08.2019 19:00:00 20,5 10,3 21,2 17,9 17,3 20 11 31 17 W 1019,2 43 39 0,0
19.08.2019 18:00:00 21,6 10,7 22,9 17,9 17,3 17 9 32 17 WNW 1018,9 20 36 0,0
19.08.2019 17:00:00 22,0 10,5 23,1 17,9 17,3 16 9 36 19 W 1018,7 31 47 0,0
19.08.2019 16:00:00 21,5 9,4 26,2 17,8 17,3 26 14 39 21 WSW 1018,7 22 36 0,0
19.08.2019 15:00:00 22,0 10,2 27,0 17,8 17,3 21 12 37 20 WSW 1018,6 23 44 0,0
19.08.2019 14:00:00 21,0 11,6 24,3 17,9 17,3 23 13 37 20 W 1018,2 21 29 0,0
19.08.2019 13:00:00 20,4 11,3 27,4 17,9 17,3 23 12 40 22 SW 1018,2 15 58 0,0
19.08.2019 12:00:00 18,8 11,8 26,5 17,9 17,3 24 13 36 19 WSW 1018,0 16 54 0,0
19.08.2019 11:00:00 17,8 12,7 22,3 18,0 17,3 21 11 32 17 SW 1017,8 15 60 0,0
19.08.2019 10:00:00 16,3 12,6 17,7 18,0 17,3 18 10 31 17 WSW 1017,4 16 60 0,0
19.08.2019 09:00:00 14,8 12,1 13,6 18,1 17,3 15 8 22 12 SW 1017,1 17 50 0,0
19.08.2019 08:00:00 13,2 11,8 8,4 18,1 17,3 3 2 15 8 S 1017,1 28 30 0,0
19.08.2019 07:00:00 11,7 10,3 8,2 18,2 17,3 5 3 16 8 SW 1016,7 26 0 0,2
19.08.2019 06:00:00 11,9 10,5 8,8 18,2 17,3 9 5 16 9 SW 1016,2 26 0 0,0
19.08.2019 05:00:00 12,2 10,4 8,9 18,2 17,3 9 5 17 9 WSW 1015,7 19 0 0,0
19.08.2019 04:00:00 11,8 10,5 6,4 18,3 17,3 11 6 16 9 SW 1015,6 31 0 0,0
19.08.2019 03:00:00 11,6 9,8 6,7 18,3 17,3 8 4 11 6 WSW 1015,3 33 0 0,0
19.08.2019 02:00:00 12,2 10,4 6,9 18,3 17,3 7 4 10 6 SW 1015,0 33 0 0,0
19.08.2019 01:00:00 12,4 10,3 8,2 18,3 17,3 8 4 11 6 W 1014,6 35 0 0,0
19.08.2019 00:00:00 13,3 10,3 9,0 18,2 17,3 9 5 12 7 WSW 1013,8 39 0 0,0
18.08.2019 23:00:00 14,0 10,4 10,1 18,2 17,3 9 5 18 10 W 1013,0 43 0 0,0
18.08.2019 22:00:00 15,9 11,1 12,1 18,2 17,4 11 6 20 11 W 1012,6 40 0 0,0
18.08.2019 21:00:00 17,7 11,7 15,5 18,2 17,3 15 8 24 13 W 1011,9 40 8 0,0
18.08.2019 20:00:00 20,0 12,0 19,2 18,2 17,3 13 7 26 14 W 1011,1 50 41 0,0
18.08.2019 19:00:00 21,0 10,8 22,8 18,1 17,3 15 8 33 18 W 1010,7 43 43 0,0
18.08.2019 18:00:00 21,5 12,6 23,8 18,1 17,3 19 11 33 18 W 1010,4 41 45 0,0
18.08.2019 17:00:00 21,3 12,4 24,1 18,1 17,3 24 13 41 22 W 1010,2 29 37 0,0
18.08.2019 16:00:00 21,3 15,4 25,5 18,1 17,3 18 10 34 18 WSW 1009,7 35 44 0,0
18.08.2019 15:00:00 19,9 15,3 23,3 18,1 17,3 22 12 34 18 W 1009,1 37 17 0,0
18.08.2019 14:00:00 18,6 15,5 21,0 18,1 17,3 16 9 30 16 W 1008,7 39 12 0,0
18.08.2019 13:00:00 17,4 15,2 19,3 18,2 17,3 16 9 22 12 W 1008,1 46 0 0,0
18.08.2019 12:00:00 16,9 15,6 18,0 18,2 17,4 13 7 27 14 WSW 1007,2 43 0 0,0
18.08.2019 11:00:00 16,4 16,1 16,9 18,2 17,3 13 7 18 10 W 1005,7 46 0 1,0
18.08.2019 10:00:00 15,3 15,0 15,9 18,2 17,3 3 1 15 8 W 1005,2 7 0 2,7
18.08.2019 09:00:00 15,1 14,8 15,1 18,2 17,3 11 6 40 21 NW 1004,2 4,5 0 2,8
18.08.2019 08:00:00 15,3 15,0 15,3 18,2 17,3 6 3 12 7 N 1003,5 1,5 0 6,6
18.08.2019 07:00:00 15,3 15,0 15,3 18,2 17,3 10 5 13 7 ESE 1003,9 3,7 0 1,3
18.08.2019 06:00:00 15,3 14,8 15,1 18,3 17,3 0 0 6 3 N 1005,4 2,3 0 3,2
18.08.2019 05:00:00 15,3 14,8 15,1 18,2 17,3 0 0 10 6 N 1006,6 3,9 0 1,2
18.08.2019 04:00:00 15,4 14,8 15,2 18,2 17,3 5 3 13 7 SE 1007,1 13 0 0,4
18.08.2019 03:00:00 15,7 14,7 15,1 18,2 17,3 6 4 26 14 SSW 1008,1 4,4 0 0,6
18.08.2019 02:00:00 16,3 15,8 15,9 18,2 17,3 7 4 18 10 SSW 1008,7 6 0 0,0

tt = Température de l'air
td = dewpoint
tt 5cm = Température de l'air 5cm
tt -20cm = Température de l'air -20cm
tt -100cm = Température de l'air -100cm
ff = Vitesse du vent
fx = gusts
dd = Direction du vent
ppp = reduced air pressure
vv = visibility
sd = Ensoleillement
rr = Quantités de précipitations

stations d'obs. à proximité